This demonstration page uses our WeatherBlox Daily Observations layout. Learn more.

40.92945, -100.16068

Hourly Observations for June 21, 2017

Temp ( °F °C ) Dew Point ( °F °C ) Humidity (%) Winds ( mph kmh ) Pressure ( in mb ) Visibility ( mi km ) Precip ( " mm )
12:15 am 00:15 Clear 72 22.1 65 18.2 79 79 ESE 5 7 29.83 1010 10 16.0934 0 0
12:35 am 00:35 Clear 69 20.7 64 17.9 84 84 ESE 3 6 29.83 1010 10 16.0934 0 0
12:55 am 00:55 Clear 71 21.6 65 18.1 81 81 ESE 5 7 29.83 1010 10 16.0934 0 0
1:15 am 01:15 Clear 72 22 64 18 78 78 SE 5 7 29.83 1010 10 16.0934 0 0
1:35 am 01:35 Clear 70 21 64 18 83 83 SSE 8 13 29.8 1009 10 16.0934 0 0
1:55 am 01:55 Clear 68 20.2 64 17.7 86 86 S 3 6 29.83 1010 10 16.0934 0 0
2:15 am 02:15 Clear 68 20.1 64 17.5 85 85 SSE 6 9 29.8 1009 10 16.0934 0 0
2:35 am 02:35 Clear 68 20.1 64 17.7 86 86 S 5 7 29.83 1010 10 16.0934 0 0
2:55 am 02:55 Clear 69 20.6 64 18 85 85 SSE 7 11 29.8 1009 10 16.0934 0 0
3:15 am 03:15 Clear 70 21.2 65 18.1 83 83 SSE 7 11 29.74 1007 10 16.0934 0 0
3:35 am 03:35 Clear 70 21.2 64 18 82 82 SE 7 11 29.74 1007 10 16.0934 0 0
3:55 am 03:55 Clear 70 20.9 64 18 84 84 SE 7 11 29.74 1007 10 16.0934 0 0
4:15 am 04:15 Clear 70 21.2 64 18 82 82 S 12 19 29.68 1005 10 16.0934 0 0
4:35 am 04:35 Clear 70 21.3 64 17.7 80 80 S 10 17 29.68 1005 10 16.0934 0 0
4:55 am 04:55 Clear 70 21.2 64 17.6 80 80 S 8 13 29.68 1005 10 16.0934 0 0
5:15 am 05:15 Clear 71 21.4 64 17.6 79 79 SSW 7 11 29.74 1007 10 16.0934 0 0
5:35 am 05:35 Clear 70 21 64 17.5 81 81 SSE 3 6 29.71 1006 10 16.0934 0 0
5:55 am 05:55 Clear 69 20.5 64 17.5 83 83 SSE 3 6 29.71 1006 10 16.0934 0 0
6:15 am 06:15 Sunny 69 20.3 63 17.3 83 83 S 9 15 29.71 1006 10 16.0934 0 0
6:35 am 06:35 Sunny 68 20 63 17.3 85 85 Calm 29.71 1006 10 16.0934 0 0
6:55 am 06:55 Sunny 68 20 64 17.6 86 86 SE 5 7 29.71 1006 10 16.0934 0 0
7:15 am 07:15 Sunny 68 20.1 64 17.6 86 86 SSE 5 7 29.71 1006 10 16.0934 0 0
7:35 am 07:35 Sunny 69 20.7 64 17.8 84 84 S 7 11 29.71 1006 10 16.0934 0 0
7:55 am 07:55 Sunny 71 21.8 64 18 79 79 S 5 7 29.68 1005 10 16.0934 0 0
8:15 am 08:15 Sunny 73 23 65 18.2 74 74 S 6 9 29.68 1005 10 16.0934 0 0
8:35 am 08:35 Sunny 75 24 64 18 69 69 S 6 9 29.68 1005 10 16.0934 0 0
8:55 am 08:55 Sunny 77 25 65 18.1 66 66 SSW 9 15 29.71 1006 10 16.0934 0 0
9:15 am 09:15 Sunny 77 25 65 18.1 66 66 SSE 9 15 29.71 1006 10 16.0934 0 0
9:35 am 09:35 Sunny 79 26.1 64 18 61 61 S 12 19 29.68 1005 10 16.0934 0 0
9:55 am 09:55 Sunny 81 27.2 65 18.1 58 58 S 8 13 29.68 1005 10 16.0934 0 0
10:15 am 10:15 Sunny 82 27.8 65 18.1 56 56 SE 5 7 29.68 1005 10 16.0934 0 0
10:35 am 10:35 Sunny 84 28.8 65 18.1 52 52 S 7 11 29.62 1003 10 16.0934 0 0
10:55 am 10:55 Sunny 86 29.8 64 17.9 49 49 SSW 6 9 29.62 1003 10 16.0934 0 0
11:15 am 11:15 Sunny 87 30.5 64 17.8 47 47 S 10 17 29.62 1003 10 16.0934 0 0
11:35 am 11:35 Sunny 89 31.5 62 16.9 42 42 SSW 10 17 29.62 1003 10 16.0934 0 0
11:55 am 11:55 Sunny 90 32.2 62 16.5 39 39 S 6 9 29.59 1002 10 16.0934 0 0
12:15 pm 12:15 Sunny 91 32.8 61 16.1 37 37 S 6 9 29.59 1002 10 16.0934 0 0
12:35 pm 12:35 Sunny 92 33.3 62 16.8 37 37 S 9 15 29.59 1002 10 16.0934 0 0
12:55 pm 12:55 Sunny 93 33.9 63 17 36 36 SSE 12 19 29.56 1001 10 16.0934 0 0
1:15 pm 13:15 Sunny 94 34.5 62 16.7 35 35 S 13 20 29.56 1001 10 16.0934 0 0
1:35 pm 13:35 Sunny 95 34.9 63 17.1 35 35 SSE 13 20 29.56 1001 10 16.0934 0 0
1:55 pm 13:55 Sunny 95 35.2 62 16.7 33 33 SSE 10 17 29.56 1001 10 16.0934 0 0
2:15 pm 14:15 Sunny 97 35.9 62 16.9 32 32 S 10 17 29.53 1000 10 16.0934 0 0
2:35 pm 14:35 Sunny 97 35.9 64 17.5 34 34 SSE 14 22 29.5 999 10 16.0934 0 0
2:55 pm 14:55 Sunny 98 36.4 63 17.2 32 32 S 10 17 29.5 999 10 16.0934 0 0
3:15 pm 15:15 Sunny 97 36.3 62 16.9 32 32 S 9 15 29.5 999 10 16.0934 0 0
3:35 pm 15:35 Sunny 99 37 63 17.4 31 31 S 12 19 29.5 999 10 16.0934 0 0
3:55 pm 15:55 Sunny 99 37.2 63 17 30 30 S 8 13 29.5 999 10 16.0934 0 0
4:15 pm 16:15 Sunny 99 37.4 63 17.3 30 30 S 13 20 29.47 998 10 16.0934 0 0
4:35 pm 16:35 Sunny 97 35.9 62 16.5 32 32 S 9 15 29.47 998 10 16.0934 0 0
4:55 pm 16:55 Sunny 98 36.9 64 17.9 33 33 SE 12 19 29.47 998 10 16.0934 0 0
5:15 pm 17:15 Sunny 99 37.3 63 17.3 31 31 SSE 15 24 29.47 998 10 16.0934 0 0
5:35 pm 17:35 Sunny with Nearby Thunderstorms 96 35.3 62 16.7 33 33 S 12 19 29.47 998 10 16.0934 0 0
5:55 pm 17:55 Mostly Cloudy 91 32.9 67 19.3 45 45 S 10 17 29.5 999 10 16.0934 0 0
6:15 pm 18:15 Cloudy with Rain 83 28.5 73 22.6 70 70 S 9 15 29.53 1000 7 11.26538 0.03 0.762
6:35 pm 18:35 Mostly Cloudy with Nearby Thunderstorms 85 29.7 69 20.8 59 59 SSW 17 28 29.53 1000 7 11.26538 0.08 2.032
6:55 pm 18:55 Sunny 89 31.6 69 20.5 52 52 SSE 16 26 29.5 999 10 16.0934 0.08 2.032
7:15 pm 19:15 Sunny 89 31.4 69 20.8 53 53 SSE 10 17 29.5 999 10 16.0934 0 0
7:35 pm 19:35 Sunny 89 31.8 67 19.3 47 47 SSE 10 17 29.5 999 10 16.0934 0 0
7:55 pm 19:55 Sunny 88 31.2 68 20.2 52 52 S 9 15 29.5 999 10 16.0934 0 0
8:15 pm 20:15 Sunny 88 31.1 66 18.9 48 48 S 10 17 29.53 1000 10 16.0934 0 0
8:35 pm 20:35 Sunny 86 29.9 69 20.7 58 58 S 16 26 29.53 1000 10 16.0934 0 0
8:55 pm 20:55 Sunny 85 29.4 62 16.9 47 47 S 10 17 29.53 1000 10 16.0934 0 0
9:15 pm 21:15 Clear 82 28 61 16 48 48 SSE 7 11 29.53 1000 10 16.0934 0 0
9:35 pm 21:35 Partly Cloudy 80 26.8 60 15.7 51 51 S 9 15 29.56 1001 10 16.0934 0 0
9:55 pm 21:55 Clear 79 26 60 15.5 52 52 S 9 15 29.56 1001 10 16.0934 0 0
10:15 pm 22:15 Partly Cloudy 81 27.4 65 18.1 57 57 S 13 20 29.56 1001 10 16.0934 0 0
10:35 pm 22:35 Partly Cloudy 80 26.8 67 19.2 63 63 S 15 24 29.56 1001 10 16.0934 0 0
10:55 pm 22:55 Clear 80 26.5 68 20 68 68 S 16 26 29.56 1001 10 16.0934 0 0
11:15 pm 23:15 Clear 79 26.2 69 20.3 70 70 S 18 30 29.56 1001 10 16.0934 0 0
11:35 pm 23:35 Clear 78 25.8 68 19.9 70 70 S 17 28 29.56 1001 10 16.0934 0 0
11:55 pm 23:55 Clear 78 25.6 67 19.6 70 70 S 17 28 29.56 1001 10 16.0934 0 0

Powered by AerisWeather